OBJECT A, 63428

Orbit data source: Space-Track

You're viewing an Uncataloged Satellite

Recently launched and/or uncataloged satellites may have evolving metadata. Metadata may include but not limited to: Owner, Maufacturer, Bus, Motor, and Mission.

OBJECT A, 63428 is a satellite owned by Zhongguo Xingwang (CN) in LEO that was launched on Tue, 01 Apr 2025 UTC via a CHANG ZHENG 2D launch vehicle from the Jiuquan Satellite Launch Center, China (JSC). Unknown objects in Earth's orbit typically refer to objects detected orbiting the Earth but have not yet been identified or cataloged. These objects could be anything from previously untracked satellites, spent rocket stages, debris from satellite collisions, or even natural meteoroids temporarily captured by Earth's gravity.

Loading next visibility...
Identifier
63428, 2025-067A
Orbit
LEO
Last TLE update
6 hours ago
Origin
Manufacturer
Yinhe
Mission
Operational Civil Communications
Bus & Motor
Unknown
Mass
~300 kg wet, ~300 kg dry
Launch date (UTC)
2025-04-01 (1 month ago)
Launch vehicle
CHANG ZHENG 2D
Launch site
Jiuquan Satellite Launch Center, China (JSC)
Object type
Unknown
Shape & HBR
Box + 2 Pan, 2.5 m
Radar Cross Section
2.320 m², Large (>1 m²)

Expand to show TLE details & history

TLE from 6 hours ago
0 OBJECT A
1 63428U 25067A   25129.93070445  .00062364  00000-0  13211-2 0  9995
2 63428  54.9970  34.2556 0007213  40.4873 319.6693 15.44550156  5988
Epoch: 2025-05-09T22:20Z
Definitive object data (Epoch: 2025-05-09T22:20:12.864Z)
Latitude
-0.00004°
Longitude
-168.7778°
Altitude
430.059 km
Speed
7.657 km/s
True Right ascension
02h 17m 01s
True Declination
0° 00' 00"
Sunlit
Object was in daylight at TLE epoch
Visualization TLE readout
Latitude
38.25051°
Longitude
-136.69498°
Altitude
431.158 km
Speed
7.66 km/s
Apparent Right ascension
02h 46m 39s
Apparent Declination
0° 45' 59"
Sunlit
Object is in daylight
Visualization observer readout
Local Sidereal Time
12:58:05
Azimuth
321.872° NNW
Elevation
-42.366°
Doppler factor
1
Orbital elements
Apogee altitude
437.575 km
Perigee altitude
427.75 km
Semi-major axis
6,810.8 km
Eccentricity
0.0007213
Inclination
54.997°
RAAN
34.2556°
Arg. of periapsis
40.4873°
True anomaly
319.61577°
Mean anomaly
319.6693°
Eccentric anomaly
319.64254°
Mean motion
3.86141 °/min
BSTAR
0.0013211
Orbital period
93.23 mins
Loading maneuver chart data...
Loading SW <> Apogee altitude chart data...
Loading historical data...
Loading historical data...
Loading historical data...
Loading historical data...
Loading historical data...
Loading historical data...
Loading historical data...
Other satellites on launch #67 in the year 2025 (2025-04-01 UTC)

OBJECT A Visibility forecast

Observer location: undefined°, undefined°

Span
Click to sort rows by Start time (UTC) header in descending order
Start Az.
Max El. time (UTC)
Max El. Az.
Max El.
End time (UTC)
End Az.
6 mins2025-05-10 20:15:34.992Z234.253° WSW2025-05-10 20:18:34.992Z338.054° N43.108°2025-05-10 20:21:34.992Z42.488° NE
5 mins2025-05-11 02:47:34.992Z330.681° NNW2025-05-11 02:49:34.992Z29.468° NE36.223°2025-05-11 02:52:34.992Z112.766° SE
|